• In Uzbekistan
  • List of Countries
  • For 7 days
  • Water Temperature
  • Satellite Maps
  • Weather Map
  • Weather Widgets
  • user-avatar
    Login

    Hourly Weather Klosowo

    Today, 23 February, Saturday

    Time Temperature Precipitation Wind Pressure Humidity
    00:00 -4°C° 0 mm 2 mps 771 mmHg 44%
    01:00 -4°C° 0 mm 2 mps 771 mmHg 43%
    02:00 -4°C° 0 mm 2 mps 771 mmHg 42%
    03:00 -4°C° 0 mm 2 mps 771 mmHg 42%
    04:00 -4°C° 0 mm 2 mps 770 mmHg 42%
    05:00 -4°C° 0 mm 2 mps 770 mmHg 42%
    06:00 -4°C° 0 mm 2 mps 770 mmHg 42%
    07:00 -2°C° 0 mm 1 mps 771 mmHg 42%
    08:00 -4°C° 0 mm 2 mps 771 mmHg 39%
    09:00 -3°C° 0 mm 2 mps 770 mmHg 36%
    10:00 -2°C° 0 mm 2 mps 770 mmHg 32%
    11:00 -1°C° 0 mm 2 mps 770 mmHg 30%
    12:00 +1°C° 0 mm 2 mps 770 mmHg 28%
    13:00 +1°C° 0 mm 2 mps 770 mmHg 25%
    14:00 +2°C° 0 mm 2 mps 770 mmHg 27%
    15:00 +2°C° 0 mm 2 mps 769 mmHg 28%
    16:00 +2°C° 0 mm 2 mps 769 mmHg 29%
    17:00 +1°C° 0 mm 2 mps 769 mmHg 32%
    18:00 -1°C° 0 mm 2 mps 768 mmHg 35%
    19:00 -2°C° 0 mm 2 mps 768 mmHg 39%
    20:00 -2°C° 0 mm 2 mps 768 mmHg 39%
    21:00 -2°C° 0 mm 2 mps 768 mmHg 39%
    22:00 -2°C° 0 mm 2 mps 768 mmHg 39%
    23:00 -2°C° 0 mm 2 mps 767 mmHg 39%

    Tomorrow, 24 February, Sunday

    Time Temperature Precipitation Wind Pressure Humidity
    00:00 -1°C° 0 mm 2 mps 767 mmHg 39%
    01:00 -1°C° 0 mm 2 mps 767 mmHg 39%
    02:00 -1°C° 0 mm 2 mps 767 mmHg 40%
    03:00 -1°C° 0 mm 2 mps 766 mmHg 42%
    04:00 -1°C° 0 mm 2 mps 766 mmHg 43%
    05:00 -2°C° 0 mm 2 mps 766 mmHg 45%
    06:00 -2°C° 0 mm 2 mps 766 mmHg 46%
    07:00 -2°C° 0 mm 2 mps 766 mmHg 47%
    08:00 +1°C° 0 mm 2 mps 765 mmHg 45%
    09:00 +1°C° 0 mm 3 mps 765 mmHg 42%
    10:00 +2°C° 0 mm 3 mps 765 mmHg 40%
    11:00 +3°C° 0 mm 3 mps 765 mmHg 40%
    12:00 +4°C° 0 mm 3 mps 765 mmHg 41%
    13:00 +7°C° 0 mm 3 mps 765 mmHg 41%
    14:00 +5°C° 0 mm 3 mps 765 mmHg 46%
    15:00 +5°C° 0 mm 3 mps 765 mmHg 51%
    16:00 +4°C° 0 mm 3 mps 764 mmHg 56%
    17:00 +4°C° 0 mm 3 mps 764 mmHg 59%
    18:00 +3°C° 0 mm 3 mps 764 mmHg 63%
    19:00 +2°C° 0 mm 3 mps 764 mmHg 66%
    20:00 +2°C° 0 mm 3 mps 764 mmHg 70%
    21:00 +2°C° 0 mm 3 mps 764 mmHg 75%
    22:00 +1°C° 0 mm 3 mps 764 mmHg 79%
    23:00 +1°C° 0 mm 3 mps 764 mmHg 84%

    Day after tomorrow, 25 February, Monday

    Time Temperature Precipitation Wind Pressure Humidity
    00:00 +1°C° 0 mm 3 mps 764 mmHg 89%
    01:00 +2°C° 0 mm 2 mps 764 mmHg 94%
    02:00 +1°C° 0 mm 2 mps 764 mmHg 95%
    03:00 +1°C° 0 mm 2 mps 764 mmHg 96%
    04:00 +1°C° 0 mm 2 mps 764 mmHg 97%
    05:00 +1°C° 0 mm 2 mps 764 mmHg 97%
    06:00 +2°C° 0 mm 2 mps 764 mmHg 98%
    07:00 +2°C° 0 mm 2 mps 764 mmHg 98%
    08:00 +2°C° 0 mm 3 mps 764 mmHg 95%
    09:00 +3°C° 0 mm 3 mps 765 mmHg 92%
    10:00 +3°C° 0 mm 3 mps 765 mmHg 90%
    11:00 +5°C° 0 mm 3 mps 764 mmHg 82%
    12:00 +7°C° 0 mm 3 mps 764 mmHg 75%
    13:00 +9°C° 0 mm 3 mps 764 mmHg 67%
    14:00 +9°C° 0 mm 3 mps 763 mmHg 69%
    15:00 +8°C° 0 mm 4 mps 763 mmHg 71%
    16:00 +8°C° 0 mm 4 mps 763 mmHg 72%
    17:00 +7°C° 0 mm 4 mps 763 mmHg 77%
    18:00 +7°C° 0 mm 3 mps 762 mmHg 82%
    19:00 +5°C° 0 mm 3 mps 762 mmHg 87%
    20:00 +5°C° 0 mm 4 mps 762 mmHg 84%
    21:00 +4°C° 0 mm 4 mps 762 mmHg 81%
    22:00 +4°C° 0 mm 4 mps 761 mmHg 79%
    23:00 +3°C° 0 mm 4 mps 761 mmHg 79%

    26 February, Tuesday

    Time Temperature Precipitation Wind Pressure Humidity
    00:00 +3°C° 0 mm 4 mps 761 mmHg 79%
    01:00 +3°C° 0 mm 4 mps 761 mmHg 79%
    02:00 +3°C° 0 mm 4 mps 761 mmHg 77%
    03:00 +3°C° 0 mm 4 mps 760 mmHg 75%
    04:00 +3°C° 0 mm 4 mps 760 mmHg 73%
    05:00 +3°C° 0 mm 4 mps 760 mmHg 73%
    06:00 +1°C° 0 mm 4 mps 759 mmHg 73%
    07:00 +1°C° 0 mm 4 mps 759 mmHg 74%
    08:00 +3°C° 0 mm 4 mps 759 mmHg 72%
    09:00 +3°C° 0 mm 5 mps 759 mmHg 70%
    10:00 +6°C° 0 mm 5 mps 759 mmHg 68%
    11:00 +7°C° 0 mm 5 mps 759 mmHg 67%
    12:00 +8°C° 0 mm 5 mps 760 mmHg 66%
    13:00 +9°C° 0 mm 5 mps 760 mmHg 65%
    14:00 +8°C° 0 mm 4 mps 759 mmHg 66%
    15:00 +8°C° 0 mm 4 mps 759 mmHg 68%
    16:00 +8°C° 0 mm 4 mps 759 mmHg 70%
    17:00 +8°C° 0 mm 3 mps 759 mmHg 74%
    18:00 +5°C° 0 mm 3 mps 759 mmHg 77%
    19:00 +4°C° 0 mm 3 mps 759 mmHg 81%
    20:00 +5°C° 0 mm 2 mps 759 mmHg 82%
    21:00 +4°C° 0 mm 2 mps 759 mmHg 83%
    22:00 +4°C° 0 mm 2 mps 759 mmHg 84%
    23:00 +4°C° 0 mm 2 mps 759 mmHg 85%

    27 February, Wednesday

    Time Temperature Precipitation Wind Pressure Humidity
    00:00 +3°C° 0 mm 2 mps 759 mmHg 86%
    01:00 +3°C° 0 mm 2 mps 758 mmHg 87%
    02:00 +3°C° 0 mm 2 mps 758 mmHg 89%
    03:00 +3°C° 0 mm 2 mps 757 mmHg 91%
    04:00 +3°C° 0 mm 2 mps 757 mmHg 92%
    05:00 +2°C° 0 mm 3 mps 757 mmHg 93%
    06:00 +1°C° 0 mm 3 mps 756 mmHg 93%
    07:00 +1°C° 0 mm 3 mps 756 mmHg 93%
    08:00 +2°C° 0 mm 3 mps 756 mmHg 88%
    09:00 +4°C° 0 mm 4 mps 756 mmHg 83%
    10:00 +5°C° 0 mm 4 mps 756 mmHg 77%
    11:00 +6°C° 0 mm 4 mps 755 mmHg 75%
    12:00 +7°C° 0 mm 4 mps 755 mmHg 72%
    13:00 +10°C° 0 mm 4 mps 754 mmHg 70%
    14:00 +10°C° 0 mm 4 mps 754 mmHg 70%
    15:00 +8°C° 0 mm 4 mps 753 mmHg 69%
    16:00 +8°C° 0 mm 4 mps 753 mmHg 69%
    17:00 +7°C° 0 mm 4 mps 752 mmHg 73%
    18:00 +7°C° 0 mm 3 mps 752 mmHg 77%
    19:00 +5°C° 0 mm 3 mps 752 mmHg 80%
    20:00 +4°C° 0 mm 3 mps 751 mmHg 80%
    21:00 +4°C° 0 mm 3 mps 751 mmHg 79%
    22:00 +3°C° 0 mm 3 mps 751 mmHg 78%
    23:00 +3°C° 0 mm 3 mps 750 mmHg 77%

    28 February, Thursday

    Time Temperature Precipitation Wind Pressure Humidity
    00:00 +2°C° 0 mm 3 mps 750 mmHg 75%
    01:00 +2°C° 0 mm 3 mps 749 mmHg 74%
    02:00 +2°C° 0 mm 3 mps 749 mmHg 75%
    03:00 +2°C° 0 mm 3 mps 749 mmHg 75%
    04:00 +1°C° 0 mm 3 mps 748 mmHg 76%
    05:00 +1°C° 0 mm 3 mps 748 mmHg 80%
    06:00 +1°C° 0 mm 3 mps 748 mmHg 83%
    07:00 +1°C° 0 mm 3 mps 748 mmHg 87%
    08:00 +1°C° 0 mm 4 mps 748 mmHg 80%
    09:00 +4°C° 0 mm 4 mps 748 mmHg 72%
    10:00 +5°C° 0 mm 4 mps 748 mmHg 65%
    11:00 +6°C° 0 mm 4 mps 748 mmHg 62%
    12:00 +7°C° 0 mm 4 mps 748 mmHg 58%
    13:00 +8°C° 0 mm 4 mps 748 mmHg 54%
    14:00 +7°C° 0 mm 4 mps 748 mmHg 56%
    15:00 +7°C° 0 mm 4 mps 748 mmHg 57%
    16:00 +7°C° 0 mm 4 mps 748 mmHg 59%
    17:00 +5°C° 0 mm 3 mps 748 mmHg 65%
    18:00 +5°C° 0 mm 2 mps 749 mmHg 71%
    19:00 +4°C° 0 mm 2 mps 749 mmHg 77%
    20:00 +5°C° 0 mm 1 mps 749 mmHg 79%
    21:00 +4°C° 0 mm 1 mps 749 mmHg 81%
    22:00 +4°C° 0 mm 1 mps 749 mmHg 83%
    23:00 +3°C° 0 mm 1 mps 749 mmHg 83%
    Show more